AirNav   TITAN Aviation Fuels
 
 1615 users online  

WN09 Bucky's Airpark
Plainfield, Wisconsin, USA

GOING TO PLAINFIELD?


FAA INFORMATION EFFECTIVE 16 JUNE 2022

Location

FAA Identifier: WN09
Lat/Long: 44-09-52.0000N 089-30-29.0000W
44-09.866667N 089-30.483333W
44.1644444,-89.5080556
(estimated)
Elevation: 1145 ft. / 349 m (estimated)
From city: 3 miles S of PLAINFIELD, WI
Time zone: UTC -5 (UTC -6 during Standard Time)
Zip code: 54966

Airport Operations

Airport use: Private use. Permission required prior to landing
Activation date: 12/2003
Control tower: no
ARTCC: CHICAGO CENTER
FSS: GREEN BAY FLIGHT SERVICE STATION
Attendance: UNATNDD
Wind indicator: yes
Segmented circle: no

Airport Communications

WX AWOS-3PT at Y50 (11 nm SE): 119.475 (920-787-0515)
WX ASOS at ISW (18 nm NW): 126.575 (715-421-2120)

Nearby radio navigation aids

VOR radial/distance  VOR name  Freq  Var
DLLr014/38.4DELLS VORTAC117.0003E

Airport Services

Runway Information

Runway 18/36

Dimensions: 1650 x 90 ft. / 503 x 27 m
Surface: turf
RUNWAY 18  RUNWAY 36
Traffic pattern: leftleft
Obstructions: none40 ft. pline, marked, 216 ft. from runway

Airport Ownership and Management from official FAA records

Ownership: Privately-owned
Owner: TOM BUCHBERGER
N5160 5TH DRIVE
PLAINFIELD, WI 54966
Phone 715-335-8210
Manager: TOM BUCHBERGER
N 5160 5TH DRIVE
PLAINFIELD, WI 54966
Phone 715-335-8210

Airport Operational Statistics

Aircraft based on the field: 2
Single engine airplanes: 2
    

Additional Remarks

RY 18 IS FOR ARR USE ONLY AND 36 IS FOR DEP ONLY.
FOR CD CTC CHICAGO ARTCC AT 630-906-8921.

Instrument Procedures

There are no published instrument procedures at WN09.

Some nearby airports with instrument procedures:

Y50 - Wautoma Municipal Airport (11 nm SE)
63C - Adams County Airport-Legion Field (17 nm SW)
KISW - Alexander Field South Wood County Airport (18 nm NW)
KSTE - Stevens Point Municipal Airport (23 nm N)
KPCZ - Waupaca Municipal Airport (23 nm NE)
 
Loc | Ops | Rwys | IFR | FBO | Links
Com | Nav | Svcs | Stats | Notes
Area around WN09 (Bucky's Airpark)
 
Road maps at: MapQuest Bing Google
 
Aerial photo
No photo
 
Sectional chart

 
Airport distance calculator
Flying to Bucky's Airpark? Find the distance to fly.

From to WN09

Sunrise and sunset
Times for 07-Jul-2022
 Local
(UTC-5)
 Zulu
(UTC)
Morning civil twilight04:4709:47
Sunrise05:2310:23
Sunset20:4301:43
Evening civil twilight21:1902:19

Current date and time
Zulu (UTC)  07-Jul-2022 17:51:34
Local (UTC-5)  07-Jul-2022 12:51:34
 
METAR
KY50 
11nm SE 
071656Z AUTO VRB03KT 1 1/4SM HZ FEW030 27/19 A3004 RMK AO2 SLP164 T02670194 PWINO $
KISW 
19nm NW 
071654Z AUTO 20004KT 10SM CLR 26/19 A3004 RMK AO2 SLP169 T02610189
KSTE 
22nm N 
071735Z AUTO 29003KT 10SM BKN027 BKN040 26/17 A3004 RMK AO2 T02640168
TAF
KVOK 
36nm SW 
070900Z 0709/0815 VRB06KT 0800 FG SCT030 QNH2999INS BECMG 0710/0712 VRB06KT 9999 NSW BKN030 QNH3000INS BECMG 0723/0724 12006KT 9000 -SHRA FEW015 BKN030 QNH2997INS BECMG 0809/0810 09006KT 6000 -SHRA BKN015 QNH3003INS BECMG 0812/0813 08009KT 9999 NSW BKN015 QNH3008INS TX29/0722Z TN16/0711Z
KCWA 
37nm N 
071610Z 0716/0812 21006KT P6SM BKN020 BKN035 FM071900 21006KT P6SM BKN040 FM072300 25005KT P6SM SCT050 BKN250 FM080200 06004KT P6SM -SHRA BKN040 FM080800 07006KT P6SM BKN025
KATW 
43nm E 
071425Z 0714/0812 20005KT P6SM BKN035 FM072100 18004KT P6SM SCT050 BKN250 FM080400 02007KT P6SM -SHRA BKN035 FM080800 06005KT P6SM BKN030
NOTAMs
Click for the latest NOTAMs
NOTAMs are issued by the DoD/FAA and will open in a separate window not controlled by AirNav.

 

 
 

Would you like to see your business listed on this page?

 If your business provides an interesting product or service to pilots, flight crews, aircraft, or users of the Bucky's Airpark, you should consider listing it here.  To start the listing process, click on the button below
 
Add a business
 

Other Pages about Bucky's Airpark

Update a link
 
Copyright © AirNav, LLC. All rights reserved. Privacy Policy  Contact